DC9VQ Weather Reports


Display with metric or nautical units.
time (UTC)temp
F
wind
direction
speed
MPH
gust
MPH
rain 1hr
in
rain 24hr
in
rain mn
in
humidity
%
barometer
mb
20240624024227 59 0.0 0.0 0.00 0.00 0.00 88 1020.4
20240624023226 59 0.0 0.0 0.00 0.00 0.00 88 1020.5
20240624022223 59 0.0 0.0 0.00 0.00 0.00 88 1020.5
20240624021222 60 0.0 0.0 0.00 0.00 0.00 88 1020.6
20240624020219 60 0.0 0.0 0.00 0.00 0.00 88 1020.7
20240624015217 60 0.0 0.0 0.00 0.00 0.00 87 1020.7
20240624014215 60 0.0 0.0 0.00 0.00 0.00 87 1020.8
20240624013213 60 0.0 0.0 0.00 0.00 0.00 87 1020.8
20240624012212 60 0.0 0.0 0.00 0.00 0.00 87 1020.8
20240624011209 60 0.0 0.0 0.00 0.00 0.00 86 1020.9
20240624010207 60 0.0 0.0 0.00 0.00 0.00 86 1020.9
20240624005205 61 0.0 0.0 0.00 0.00 0.00 85 1020.9
20240624004204 61 0.0 0.0 0.00 0.00 0.00 85 1020.9
20240624003201 61 0.0 0.0 0.00 0.00 0.00 84 1020.9
20240624002158 61 0.0 0.0 0.00 0.00 0.00 84 1020.9
20240624001157 61 0.0 0.0 0.00 0.00 0.00 84 1020.9
20240624000155 62 0.0 0.0 0.00 0.00 0.00 84 1020.8
20240623235153 62 0.0 0.0 0.00 0.00 0.00 84 1020.8
20240623234151 62 0.0 0.0 0.00 0.00 0.00 84 1020.8
20240623233149 62 0.0 0.0 0.00 0.00 0.00 84 1020.8
20240623232148 62 0.0 0.0 0.00 0.00 0.00 84 1020.8
20240623231146 62 0.0 0.0 0.00 0.00 0.00 84 1020.8
20240623230143 63 0.0 0.0 0.00 0.00 0.00 84 1020.8
20240623225141 63 0.0 0.0 0.00 0.00 0.00 83 1020.8
20240623224139 63 0.0 0.0 0.00 0.00 0.00 83 1020.8
20240623223136 63 0.0 0.0 0.00 0.00 0.00 83 1020.8
20240623222135 64 0.0 0.0 0.00 0.00 0.00 82 1020.8
20240623221133 64 0.0 0.0 0.00 0.00 0.00 81 1020.8
20240623220132 64 0.0 0.0 0.00 0.00 0.00 81 1020.7
20240623215130 65 0.0 0.0 0.00 0.00 0.00 80 1020.7
20240623214127 65 0.0 0.0 0.00 0.00 0.00 79 1020.6
20240623213126 66 0.0 0.0 0.00 0.00 0.00 79 1020.6
20240623212124 66 0.0 0.0 0.00 0.00 0.00 78 1020.5
20240623211121 67 0.0 0.0 0.00 0.00 0.00 77 1020.5
20240623210124 67 0.0 0.0 0.00 0.00 0.00 75 1020.5
20240623205117 67 0.0 0.0 0.00 0.00 0.00 75 1020.4
20240623204116 68 0.0 0.0 0.00 0.00 0.00 74 1020.4
20240623203112 68 0.0 0.0 0.00 0.00 0.00 74 1020.3
20240623202111 68 0.0 0.0 0.00 0.00 0.00 74 1020.3
20240623200914 69 0.0 0.0 0.00 0.00 0.00 72 1034.4
20240623195912 70 0.0 0.0 0.00 0.00 0.00 71 1034.4
20240623194910 71 0.0 0.0 0.00 0.00 0.00 70 1034.2
20240623193908 71 0.0 0.0 0.00 0.00 0.00 69 1034.2
20240623192906 72 0.0 0.0 0.00 0.00 0.00 68 1034.1
20240623191905 73 0.0 0.0 0.00 0.00 0.00 67 1034.0
20240623190902 73 0.0 0.0 0.00 0.00 0.00 64 1034.0
20240623185859 74 0.0 0.0 0.00 0.00 0.00 64 1033.9
20240623184858 74 0.0 0.0 0.00 0.00 0.00 62 1033.8
20240623183857 74 0.0 0.0 0.00 0.00 0.00 62 1033.8
20240623182855 74 0.0 0.0 0.00 0.00 0.00 61 1033.8
20240623181852 75 0.0 0.0 0.00 0.00 0.00 60 1033.8
20240623180850 75 0.0 0.0 0.00 0.00 0.00 60 1033.8
20240623175848 76 0.0 0.0 0.00 0.00 0.00 61 1033.8
20240623174846 76 0.0 0.0 0.00 0.00 0.00 61 1033.8
20240623173844 76 0.0 0.0 0.00 0.00 0.00 61 1033.7
20240623172842 76 0.0 0.0 0.00 0.00 0.00 59 1033.7
20240623171840 76 0.0 0.0 0.00 0.00 0.00 59 1033.7
20240623170838 76 0.0 0.0 0.00 0.00 0.00 59 1033.6
20240623165836 76 0.0 0.0 0.00 0.00 0.00 58 1033.6
20240623164834 76 0.0 0.0 0.00 0.00 0.00 58 1033.6
20240623163833 77 0.0 0.0 0.00 0.00 0.00 58 1033.7
20240623162831 77 0.0 0.0 0.00 0.00 0.00 57 1033.8
20240623161828 77 0.0 0.0 0.00 0.00 0.00 56 1033.7
20240623160827 77 0.0 0.0 0.00 0.00 0.00 56 1033.6
20240623155823 78 0.0 0.0 0.00 0.00 0.00 55 1033.6
20240623154822 78 0.0 0.0 0.00 0.00 0.00 54 1033.6
20240623153821 79 0.0 0.0 0.00 0.00 0.00 55 1033.6
20240623152821 79 0.0 0.0 0.00 0.00 0.00 53 1033.6
20240623151817 79 0.0 0.0 0.00 0.00 0.00 54 1033.6
20240623150814 79 0.0 0.0 0.00 0.02 0.00 53 1033.5
20240623145812 79 0.0 0.0 0.00 0.02 0.00 53 1033.5
20240623144810 79 0.0 0.0 0.00 0.02 0.00 54 1033.6
20240623143808 79 0.0 0.0 0.00 0.03 0.00 56 1033.6
20240623142806 78 0.0 0.0 0.00 0.03 0.00 57 1033.7
20240623141804 78 0.0 0.0 0.00 0.03 0.00 57 1033.7
20240623140802 77 0.0 0.0 0.00 0.05 0.00 59 1033.7
20240623135801 76 0.0 0.0 0.00 0.07 0.00 62 1033.7
20240623134757 75 0.0 0.0 0.00 0.08 0.00 62 1033.7
20240623133756 75 0.0 0.0 0.00 0.08 0.00 62 1033.7
20240623132754 74 0.0 0.0 0.00 0.08 0.00 63 1033.7
20240623131752 74 0.0 0.0 0.00 0.08 0.00 63 1033.7
20240623130751 74 0.0 0.0 0.00 0.08 0.00 62 1033.7
20240623125749 74 0.0 0.0 0.00 0.08 0.00 61 1033.7
20240623124746 74 0.0 0.0 0.00 0.08 0.00 61 1033.7
20240623123744 74 0.0 0.0 0.00 0.08 0.00 61 1033.7
20240623122742 74 0.0 0.0 0.00 0.08 0.00 62 1033.7
20240623121740 73 0.0 0.0 0.00 0.08 0.00 62 1033.8
20240623120739 73 0.0 0.0 0.00 0.08 0.00 62 1033.8
20240623115736 73 0.0 0.0 0.00 0.08 0.00 63 1033.9
20240623114734 73 0.0 0.0 0.00 0.08 0.00 63 1033.9
20240623113732 73 0.0 0.0 0.00 0.08 0.00 63 1034.0
20240623112730 72 0.0 0.0 0.00 0.08 0.00 63 1034.0
20240623111728 72 0.0 0.0 0.00 0.08 0.00 66 1034.0
20240623110726 72 0.0 0.0 0.00 0.08 0.00 64 1034.1
20240623105725 72 0.0 0.0 0.00 0.08 0.00 66 1034.1
20240623104722 72 0.0 0.0 0.00 0.08 0.00 65 1034.1
20240623103721 71 0.0 0.0 0.00 0.08 0.00 66 1034.1
20240623102717 71 0.0 0.0 0.00 0.08 0.00 67 1034.1
20240623101717 71 0.0 0.0 0.00 0.08 0.00 68 1034.1
20240623100715 71 0.0 0.0 0.00 0.08 0.00 69 1034.1
20240623095712 71 0.0 0.0 0.00 0.08 0.00 70 1034.2
20240623094710 70 0.0 0.0 0.00 0.08 0.00 72 1034.2
20240623093707 70 0.0 0.0 0.00 0.08 0.00 73 1034.2
20240623092705 69 0.0 0.0 0.00 0.08 0.00 74 1034.2
20240623091704 69 0.0 0.0 0.00 0.08 0.00 76 1034.2
20240623090702 68 0.0 0.0 0.00 0.08 0.00 76 1034.2
20240623085702 68 0.0 0.0 0.00 0.08 0.00 77 1034.3
20240623084659 67 0.0 0.0 0.00 0.08 0.00 79 1034.3
20240623083657 67 0.0 0.0 0.00 0.08 0.00 79 1034.3
20240623082654 67 0.0 0.0 0.00 0.08 0.00 80 1034.3
20240623081652 66 0.0 0.0 0.00 0.08 0.00 81 1034.3
20240623080650 65 0.0 0.0 0.00 0.08 0.00 82 1034.3
20240623075648 65 0.0 0.0 0.00 0.08 0.00 83 1034.2
20240623074646 65 0.0 0.0 0.00 0.08 0.00 85 1034.2
20240623073644 64 0.0 0.0 0.00 0.08 0.00 85 1034.1
20240623072643 64 0.0 0.0 0.00 0.08 0.00 86 1034.2
20240623071641 63 0.0 0.0 0.00 0.08 0.00 87 1034.1
20240623070637 63 0.0 0.0 0.00 0.08 0.00 87 1034.1
20240623065636 63 0.0 0.0 0.00 0.08 0.00 87 1034.1
20240623064634 63 0.0 0.0 0.00 0.08 0.00 87 1034.0
20240623063632 63 0.0 0.0 0.00 0.08 0.00 88 1033.9
20240623062630 62 0.0 0.0 0.00 0.08 0.00 88 1033.9
20240623061628 62 0.0 0.0 0.00 0.08 0.00 88 1033.8
20240623060626 62 0.0 0.0 0.00 0.08 0.00 88 1033.7
20240623055625 62 0.0 0.0 0.00 0.08 0.00 88 1033.6
20240623054623 62 0.0 0.0 0.00 0.08 0.00 89 1033.5
20240623053620 61 0.0 0.0 0.00 0.08 0.00 89 1033.3
20240623052618 61 0.0 0.0 0.00 0.08 0.00 89 1033.2
20240623051616 61 0.0 0.0 0.00 0.08 0.00 89 1033.0
20240623050615 61 0.0 0.0 0.00 0.08 0.00 90 1032.9
20240623045613 60 0.0 0.0 0.00 0.08 0.00 90 1032.8
20240623044610 60 0.0 0.0 0.00 0.08 0.00 90 1032.7
20240623043608 60 0.0 0.0 0.00 0.08 0.00 90 1032.6
20240623042606 60 0.0 0.0 0.00 0.08 0.00 90 1032.6
20240623041604 60 0.0 0.0 0.00 0.08 0.00 90 1032.6
20240623040602 60 0.0 0.0 0.00 0.08 0.00 91 1032.4
20240623035601 60 0.0 0.0 0.00 0.08 0.00 90 1032.4
20240623034558 60 0.0 0.0 0.00 0.08 0.00 91 1032.1
20240623033556 59 0.0 0.0 0.00 0.08 0.00 90 1031.9
20240623032554 59 0.0 0.0 0.00 0.08 0.00 90 1031.8
20240623031552 59 0.0 0.0 0.00 0.08 0.00 91 1031.7
20240623030549 59 0.0 0.0 0.00 0.08 0.00 90 1031.8
20240623025548 59 0.0 0.0 0.00 0.08 0.00 91 1031.7